DAH4000 DAAG-DTTA

Flight info

Callsign DAH4000
Flight time N/A
Altitude 35000
Route BJA1B BJA UA411 MORJA UM978 KEMIR UA411 TUC
Aircraft B738/M-SDE2E3FGHIRWXY/LB1

Departure

Time 2026-05-07 18:40
Airport Houari Boumediene Airport (DAAG)

Arrival

Time N/A
Airport Tunis Carthage International Airport (DTTA)
Time Latitude Longitude Altitude Speed Heading
2026-05-07 17:54 36.69608 3.20286 41 ft 0 kts 326°
2026-05-07 18:29 36.69600 3.20292 59 ft 4 kts 326°
2026-05-07 18:29 36.69577 3.20311 62 ft 4 kts 326°
2026-05-07 18:29 36.69554 3.20329 67 ft 4 kts 327°
2026-05-07 18:30 36.69533 3.20347 61 ft 4 kts 327°
2026-05-07 18:30 36.69509 3.20360 62 ft 4 kts 352°
2026-05-07 18:30 36.69482 3.20361 64 ft 4 kts
2026-05-07 18:30 36.69471 3.20360 64 ft 1 kts
2026-05-07 18:31 36.69470 3.20360 64 ft 2 kts
2026-05-07 18:35 36.69478 3.20348 63 ft 3 kts 286°
2026-05-07 18:35 36.69455 3.20324 67 ft 7 kts 208°
2026-05-07 18:36 36.69389 3.20288 66 ft 8 kts 186°
2026-05-07 18:36 36.69330 3.20291 67 ft 8 kts 160°
2026-05-07 18:36 36.69307 3.20349 71 ft 8 kts 88°
2026-05-07 18:36 36.69304 3.20428 71 ft 10 kts 92°
2026-05-07 18:37 36.69302 3.20518 71 ft 11 kts 93°
2026-05-07 18:37 36.69295 3.20621 68 ft 13 kts 95°
2026-05-07 18:37 36.69289 3.20733 68 ft 14 kts 94°
2026-05-07 18:37 36.69286 3.20855 71 ft 13 kts 91°
2026-05-07 18:38 36.69270 3.20917 66 ft 7 kts 133°
2026-05-07 18:38 36.69230 3.20946 70 ft 7 kts 161°
2026-05-07 18:38 36.69181 3.20962 73 ft 7 kts 174°
2026-05-07 18:38 36.69135 3.20946 83 ft 7 kts 218°
2026-05-07 18:39 36.69118 3.20893 84 ft 7 kts 266°
2026-05-07 18:39 36.69118 3.20828 81 ft 8 kts 271°
2026-05-07 18:39 36.69121 3.20670 79 ft 51 kts 271°
2026-05-07 18:39 36.69141 3.19850 73 ft 137 kts 271°
2026-05-07 18:40 36.69211 3.18421 430 ft 182 kts 272°
2026-05-07 18:40 36.69203 3.16760 1219 ft 210 kts 271°
2026-05-07 18:40 36.69220 3.14810 1750 ft 233 kts 271°
2026-05-07 18:40 36.69241 3.12797 2275 ft 235 kts 271°
2026-05-07 18:41 36.69265 3.10729 2815 ft 242 kts 270°
2026-05-07 18:41 36.69275 3.08622 3329 ft 242 kts 265°
2026-05-07 18:41 36.68713 3.06709 3856 ft 243 kts 232°
2026-05-07 18:41 36.67357 3.05431 4430 ft 251 kts 202°
2026-05-07 18:42 36.65615 3.05213 4985 ft 259 kts 171°
2026-05-07 18:42 36.64010 3.06234 5525 ft 267 kts 136°
2026-05-07 18:42 36.63128 3.08254 6077 ft 272 kts 100°
2026-05-07 18:42 36.63087 3.10617 6670 ft 277 kts 88°
2026-05-07 18:43 36.63159 3.12216 7027 ft 283 kts 86°
2026-05-07 18:43 36.63294 3.14677 7558 ft 285 kts 86°
2026-05-07 18:43 36.63429 3.17152 8060 ft 292 kts 86°
2026-05-07 18:43 36.63560 3.19731 8668 ft 302 kts 86°
2026-05-07 18:44 36.63684 3.22366 9448 ft 307 kts 87°
2026-05-07 18:44 36.63803 3.25038 10184 ft 313 kts 87°
2026-05-07 18:44 36.63921 3.27833 10468 ft 335 kts 87°
2026-05-07 18:44 36.64043 3.30837 10653 ft 359 kts 88°
2026-05-07 18:45 36.64171 3.34043 10825 ft 381 kts 88°
2026-05-07 18:45 36.64304 3.37431 11009 ft 401 kts 88°
2026-05-07 18:45 36.64438 3.40901 11456 ft 410 kts 88°
2026-05-07 18:45 36.64576 3.44468 12074 ft 414 kts 88°
2026-05-07 18:46 36.64714 3.48071 12721 ft 418 kts 88°
2026-05-07 18:46 36.64852 3.51711 13335 ft 422 kts 88°
2026-05-07 18:46 36.64990 3.55394 13911 ft 427 kts 88°
2026-05-07 18:46 36.65128 3.59110 14425 ft 432 kts 88°
2026-05-07 18:47 36.65286 3.62867 14926 ft 437 kts 88°
2026-05-07 18:47 36.65468 3.66666 15431 ft 442 kts 88°
2026-05-07 18:47 36.65659 3.70510 15936 ft 446 kts 88°
2026-05-07 18:47 36.65853 3.74392 16430 ft 451 kts 88°
2026-05-07 18:48 36.66047 3.78310 16925 ft 456 kts 88°
2026-05-07 18:48 36.66238 3.82272 17403 ft 460 kts 88°
2026-05-07 18:48 36.66427 3.86265 17876 ft 465 kts 89°
2026-05-07 18:48 36.66614 3.90254 18269 ft 470 kts 89°
2026-05-07 18:49 36.66804 3.94347 18651 ft 473 kts 89°
2026-05-07 18:49 36.66993 3.98444 19123 ft 475 kts 88°
2026-05-07 18:49 36.67181 4.02572 19521 ft 478 kts 88°
2026-05-07 18:49 36.67370 4.06723 19930 ft 481 kts 88°
2026-05-07 18:50 36.67557 4.10898 20336 ft 484 kts 88°
2026-05-07 18:50 36.67745 4.15101 20720 ft 488 kts 88°
2026-05-07 18:50 36.67933 4.19350 21080 ft 492 kts 88°
2026-05-07 18:50 36.68121 4.23626 21441 ft 496 kts 89°
2026-05-07 18:51 36.68308 4.27930 21842 ft 498 kts 88°
2026-05-07 18:51 36.68492 4.32189 22263 ft 500 kts 88°
2026-05-07 18:51 36.68680 4.36580 22621 ft 503 kts 88°
2026-05-07 18:51 36.68865 4.40939 22972 ft 506 kts 89°
2026-05-07 18:52 36.69050 4.45329 23344 ft 508 kts 89°
2026-05-07 18:52 36.69231 4.49670 23673 ft 510 kts 89°
2026-05-07 18:52 36.69414 4.54091 23998 ft 511 kts 89°
2026-05-07 18:52 36.69596 4.58526 24320 ft 513 kts 89°
2026-05-07 18:53 36.69776 4.62961 24642 ft 514 kts 89°
2026-05-07 18:53 36.69957 4.67472 24946 ft 515 kts 89°
2026-05-07 18:53 36.70133 4.71876 25222 ft 516 kts 89°
2026-05-07 18:53 36.70310 4.76360 25498 ft 518 kts 89°
2026-05-07 18:54 36.70485 4.80852 25800 ft 519 kts 89°
2026-05-07 18:54 36.70659 4.85347 26089 ft 520 kts 90°
2026-05-07 18:54 36.70832 4.89853 26358 ft 521 kts 90°
2026-05-07 18:54 36.71004 4.94371 26643 ft 522 kts 90°
2026-05-07 18:55 36.71174 4.98890 26988 ft 521 kts 90°
2026-05-07 18:55 36.71342 5.03385 27433 ft 517 kts 90°
2026-05-07 18:55 36.71510 5.07845 27926 ft 513 kts 90°
2026-05-07 18:55 36.71817 5.12272 28406 ft 512 kts 86°
2026-05-07 18:56 36.72273 5.16668 28855 ft 510 kts 85°
2026-05-07 18:56 36.72791 5.21034 29281 ft 508 kts 85°
2026-05-07 18:56 36.73315 5.25380 29734 ft 506 kts 85°
2026-05-07 18:56 36.73814 5.29655 30157 ft 503 kts 85°
2026-05-07 18:57 36.74294 5.33959 30519 ft 500 kts 86°
2026-05-07 18:57 36.74756 5.38260 30796 ft 500 kts 86°
2026-05-07 18:57 36.75207 5.42574 31031 ft 501 kts 87°
2026-05-07 18:57 36.75652 5.46890 31294 ft 501 kts 87°
2026-05-07 18:58 36.76096 5.51195 31582 ft 500 kts 87°
2026-05-07 18:58 36.76540 5.55509 31846 ft 500 kts 87°
2026-05-07 18:58 36.76983 5.59817 32064 ft 501 kts 87°
2026-05-07 18:58 36.77425 5.64128 32318 ft 501 kts 87°
2026-05-07 18:59 36.77862 5.68391 32527 ft 502 kts 87°
2026-05-07 18:59 36.78303 5.72720 32726 ft 503 kts 88°
2026-05-07 18:59 36.78745 5.77056 32989 ft 503 kts 88°
2026-05-07 18:59 36.79184 5.81387 33256 ft 503 kts 88°
2026-05-07 19:00 36.79622 5.85724 33483 ft 504 kts 88°
2026-05-07 19:00 36.79960 5.90062 33690 ft 502 kts 91°
2026-05-07 19:00 36.80153 5.94404 33945 ft 500 kts 93°
2026-05-07 19:00 36.80283 5.98733 34166 ft 499 kts 94°
2026-05-07 19:01 36.80385 6.03068 34344 ft 500 kts 94°
2026-05-07 19:01 36.80480 6.07419 34469 ft 503 kts 94°
2026-05-07 19:01 36.80578 6.11735 34619 ft 504 kts 94°
2026-05-07 19:01 36.80685 6.16108 34847 ft 504 kts 94°
2026-05-07 19:02 36.80799 6.20504 34865 ft 508 kts 94°
2026-05-07 19:02 36.81036 6.29308 34877 ft 506 kts 94°
2026-05-07 19:03 36.81274 6.38075 34879 ft 504 kts 93°
2026-05-07 19:03 36.81501 6.46801 34889 ft 502 kts 94°
2026-05-07 19:04 36.81718 6.55506 34891 ft 501 kts 94°
2026-05-07 19:04 36.81927 6.64184 34898 ft 501 kts 93°
2026-05-07 19:05 36.82130 6.72827 34902 ft 502 kts 93°
2026-05-07 19:05 36.82328 6.81547 34887 ft 504 kts 93°
2026-05-07 19:06 36.82521 6.90313 34885 ft 506 kts 93°
2026-05-07 19:06 36.82800 7.03526 34888 ft 509 kts 93°
2026-05-07 19:07 36.82979 7.12406 34880 ft 512 kts 93°
2026-05-07 19:07 36.83151 7.21263 34876 ft 514 kts 93°
2026-05-07 19:08 36.83319 7.30222 34876 ft 516 kts 93°
2026-05-07 19:08 36.83481 7.39200 34869 ft 519 kts 93°
2026-05-07 19:09 36.83636 7.48220 34858 ft 521 kts 93°
2026-05-07 19:09 36.83785 7.57285 34846 ft 524 kts 93°
2026-05-07 19:10 36.83928 7.66405 34857 ft 526 kts 93°
2026-05-07 19:10 36.84065 7.75506 34851 ft 527 kts 94°
2026-05-07 19:11 36.84195 7.84666 34851 ft 528 kts 94°
2026-05-07 19:11 36.84318 7.93859 34850 ft 529 kts 94°
2026-05-07 19:12 36.84434 8.03051 34852 ft 529 kts 94°
2026-05-07 19:12 36.84543 8.12233 34860 ft 529 kts 94°
2026-05-07 19:13 36.84645 8.21379 34863 ft 529 kts 94°
2026-05-07 19:13 36.84740 8.30568 34868 ft 529 kts 94°
2026-05-07 19:14 36.84827 8.39759 34851 ft 529 kts 94°
2026-05-07 19:14 36.84908 8.48938 34867 ft 529 kts 94°
2026-05-07 19:15 36.84982 8.58122 34880 ft 528 kts 94°
2026-05-07 19:15 36.85048 8.67301 34882 ft 528 kts 95°
2026-05-07 19:16 36.85108 8.76455 34903 ft 527 kts 95°
2026-05-07 19:16 36.85161 8.85536 34881 ft 516 kts 95°
2026-05-07 19:17 36.85190 8.89955 34877 ft 501 kts 95°
2026-05-07 19:17 36.85217 8.94245 34884 ft 486 kts 95°
2026-05-07 19:17 36.85240 8.98415 34882 ft 473 kts 95°
2026-05-07 19:17 36.85258 9.02425 34869 ft 460 kts 96°
2026-05-07 19:18 36.85274 9.06364 34867 ft 448 kts 96°
2026-05-07 19:18 36.85283 9.10252 34897 ft 450 kts 96°
2026-05-07 19:18 36.85288 9.18170 34906 ft 462 kts 96°
2026-05-07 19:19 36.85296 9.26336 34643 ft 476 kts 96°
2026-05-07 19:19 36.85303 9.30483 34115 ft 479 kts 96°
2026-05-07 19:19 36.85309 9.34673 33303 ft 487 kts 95°
2026-05-07 19:20 36.85312 9.38945 32245 ft 499 kts 95°
2026-05-07 19:20 36.85313 9.43289 31207 ft 510 kts 94°
2026-05-07 19:20 36.85314 9.47753 30292 ft 517 kts 94°
2026-05-07 19:20 36.85317 9.52265 29371 ft 521 kts 93°
2026-05-07 19:21 36.85319 9.56798 28427 ft 522 kts 93°
2026-05-07 19:21 36.85319 9.61327 27500 ft 522 kts 93°
2026-05-07 19:21 36.85316 9.65867 26572 ft 522 kts 93°
2026-05-07 19:21 36.85310 9.70396 25670 ft 522 kts 93°
2026-05-07 19:22 36.85301 9.74924 24857 ft 519 kts 93°
2026-05-07 19:22 36.85292 9.79403 24240 ft 512 kts 93°
2026-05-07 19:22 36.85282 9.83806 23690 ft 504 kts 93°
2026-05-07 19:22 36.85269 9.88156 23020 ft 497 kts 93°
2026-05-07 19:23 36.85254 9.92398 22279 ft 492 kts 93°
2026-05-07 19:23 36.85237 9.96647 21525 ft 488 kts 93°
2026-05-07 19:23 36.85219 10.00923 20792 ft 483 kts 93°
2026-05-07 19:23 36.85199 10.05090 20112 ft 479 kts 93°
2026-05-07 19:24 36.85165 10.09174 19489 ft 473 kts 96°
2026-05-07 19:24 36.84482 10.13041 19362 ft 444 kts 118°
2026-05-07 19:24 36.82943 10.16230 19279 ft 416 kts 135°
2026-05-07 19:24 36.80875 10.18606 18877 ft 397 kts 153°
2026-05-07 19:25 36.78411 10.19980 18346 ft 381 kts 172°
2026-05-07 19:25 36.75833 10.20227 17766 ft 366 kts 191°
2026-05-07 19:25 36.73363 10.19616 17199 ft 359 kts 199°
2026-05-07 19:25 36.70958 10.18799 16601 ft 357 kts 200°
2026-05-07 19:26 36.68572 10.17946 16022 ft 356 kts 201°
2026-05-07 19:26 36.66198 10.17091 15461 ft 354 kts 201°
2026-05-07 19:26 36.63835 10.16236 14893 ft 353 kts 201°
2026-05-07 19:26 36.61477 10.15383 14350 ft 352 kts 201°
2026-05-07 19:27 36.59129 10.14531 13814 ft 351 kts 201°
2026-05-07 19:27 36.56789 10.13683 13231 ft 350 kts 201°
2026-05-07 19:27 36.54433 10.12920 12624 ft 353 kts 192°
2026-05-07 19:27 36.51948 10.13057 12034 ft 364 kts 172°
2026-05-07 19:28 36.49602 10.14314 11469 ft 375 kts 151°
2026-05-07 19:28 36.47687 10.16563 10916 ft 385 kts 131°
2026-05-07 19:28 36.46462 10.19486 10358 ft 386 kts 112°
2026-05-07 19:28 36.45643 10.22622 9754 ft 374 kts 118°
2026-05-07 19:29 36.44239 10.25230 9113 ft 356 kts 139°
2026-05-07 19:29 36.42300 10.26983 8476 ft 337 kts 160°
2026-05-07 19:29 36.40094 10.27655 7859 ft 320 kts 183°
2026-05-07 19:29 36.37961 10.27203 7255 ft 306 kts 206°
2026-05-07 19:30 36.36774 10.26328 6991 ft 295 kts 221°
2026-05-07 19:30 36.35542 10.24383 6573 ft 284 kts 246°
2026-05-07 19:30 36.35160 10.22024 6239 ft 277 kts 271°
2026-05-07 19:30 36.35680 10.19762 5874 ft 275 kts 298°
2026-05-07 19:31 36.36983 10.18055 5521 ft 273 kts 326°
2026-05-07 19:31 36.38725 10.17256 5229 ft 262 kts 346°
2026-05-07 19:31 36.40493 10.16848 4935 ft 255 kts 349°
2026-05-07 19:31 36.42198 10.16486 4646 ft 247 kts 349°
2026-05-07 19:32 36.43861 10.16128 4347 ft 239 kts 349°
2026-05-07 19:32 36.45498 10.15856 4029 ft 237 kts 359°
2026-05-07 19:32 36.47141 10.15860 3754 ft 235 kts
2026-05-07 19:32 36.48780 10.15866 3451 ft 236 kts
2026-05-07 19:33 36.50418 10.15865 3227 ft 233 kts
2026-05-07 19:33 36.52027 10.15858 3096 ft 232 kts
2026-05-07 19:33 36.53652 10.15851 3026 ft 233 kts
2026-05-07 19:33 36.55258 10.15841 2998 ft 232 kts
2026-05-07 19:34 36.56872 10.15827 2993 ft 232 kts
2026-05-07 19:34 36.58491 10.15814 3001 ft 232 kts
2026-05-07 19:34 36.60100 10.15982 2994 ft 231 kts
2026-05-07 19:34 36.61679 10.16334 3001 ft 230 kts 13°
2026-05-07 19:35 36.63243 10.16750 3011 ft 230 kts 13°
2026-05-07 19:35 36.64806 10.17177 2997 ft 230 kts 13°